Weather History for Torrington, WY

Change the Weather History Date:

Monday, January 7, 2013

  Actual Average Record
Temperature  
Mean Temperature 37 °F 28 °F  
Max Temperature 50 °F 41 °F 66 °F (2006)
Min Temperature 23 °F 14 °F -9 °F (2010)
Degree Days  
Heating Degree Days 28 37  
Month to date heating degree days 281 263  
Since 1 July heating degree days 2763 3019  
Cooling Degree Days 0 0  
Month to date cooling degree days 0 0  
Year to date cooling degree days 0 0  
Moisture  
Dew Point 12 °F    
Average Humidity 43    
Maximum Humidity 68    
Minimum Humidity 18    
Precipitation  
Precipitation 0.00 in 0.01 in 0.01 in (2014)
Month to date precipitation T 0.06  
Year to date precipitation T 0.06  
Sea Level Pressure  
Sea Level Pressure 29.93 in    
Wind  
Wind Speed 7 mph (West)    
Max Wind Speed 21 mph    
Max Gust Speed 25 mph    
Visibility 10 miles    
Events      
T = Trace of Precipitation, MM = Missing Value Source: NWS Daily Summary

Daily Weather History Graph

Daily Weather History Graph

Search for Another Location

Airport:

Trip Planner

Search our weather history database for the weather conditions in past years. The results will help you decide how hot, cold, wet, or windy it might be!

Date:

Astronomy

Jan. 07, 2013 Rise Set
Actual Time 7:24 AM MST 4:41 PM MST
Civil Twilight 6:53 AM MST 5:13 PM MST
Nautical Twilight 6:18 AM MST 5:47 PM MST
Astronomical Twilight 5:44 AM MST 6:21 PM MST
Moon 2:50 AM MST (1/7) 12:55 PM MST (1/7)
Length of Visible Light 10h 19m
Length of Day
9h 17m
Waning Crescent, 22% of the Moon is Illuminated
Jan 7
Waning Crescent
Jan 11
New
Jan 18
First Quarter
Jan 26
Full
Feb 3
Last Quarter

Hourly Weather History & Observations

Time (MST) Temp. Windchill Dew Point Humidity Pressure Visibility Wind Dir Wind Speed Gust Speed Precip Events Conditions
12:53 AM 36.0 °F 30.3 °F 10.9 °F 36% 29.92 in 10.0 mi WSW 6.9 mph - N/A   Clear
1:53 AM 37.0 °F 27.7 °F 10.0 °F 33% 29.91 in 10.0 mi West 16.1 mph - N/A   Clear
2:53 AM 35.1 °F 27.4 °F 10.0 °F 35% 29.91 in 10.0 mi West 10.4 mph - N/A   Clear
3:53 AM 30.0 °F 23.2 °F 10.9 °F 45% 29.94 in 10.0 mi South 6.9 mph - N/A   Clear
4:53 AM 34.0 °F 26.0 °F 9.0 °F 35% 29.97 in 10.0 mi NNW 10.4 mph - N/A   Clear
5:53 AM 30.0 °F 22.4 °F 8.1 °F 40% 30.00 in 10.0 mi NNW 8.1 mph - N/A   Clear
6:53 AM 28.0 °F - 10.0 °F 47% 30.04 in 10.0 mi Calm Calm - N/A   Clear
7:53 AM 26.1 °F 20.5 °F 10.9 °F 53% 30.05 in 10.0 mi WNW 4.6 mph - N/A   Clear
8:53 AM 25.0 °F 20.7 °F 10.9 °F 55% 30.09 in 10.0 mi NNE 3.5 mph - N/A   Clear
9:53 AM 30.9 °F - 14.0 °F 50% 30.10 in 10.0 mi Calm Calm - N/A   Clear
10:53 AM 39.9 °F - 12.0 °F 32% 30.02 in 10.0 mi Calm Calm - N/A   Clear
12:53 PM 48.0 °F - 7.0 °F 19% 29.88 in 10.0 mi West 13.8 mph - N/A   Clear
1:53 PM 48.9 °F - 7.0 °F 18% 29.86 in 10.0 mi West 12.7 mph - N/A   Clear
2:53 PM 46.9 °F - 8.1 °F 21% 29.87 in 10.0 mi West 16.1 mph - N/A   Clear
4:53 PM 41.0 °F 33.1 °F 12.0 °F 31% 29.85 in 10.0 mi West 15.0 mph 20.7 mph N/A   Clear
5:53 PM 39.0 °F 34.8 °F 12.9 °F 34% 29.88 in 10.0 mi WSW 5.8 mph - N/A   Clear
6:53 PM 37.0 °F 32.4 °F 12.9 °F 37% 29.88 in 10.0 mi SSW 5.8 mph - N/A   Clear
7:53 PM 32.0 °F 24.8 °F 12.9 °F 45% 29.88 in 10.0 mi ESE 8.1 mph - N/A   Clear
8:53 PM 27.0 °F 23.0 °F 17.1 °F 66% 29.89 in 10.0 mi ESE 3.5 mph - N/A   Clear
9:53 PM 27.0 °F 21.6 °F 18.0 °F 69% 29.86 in 10.0 mi East 4.6 mph - N/A   Mostly Cloudy
10:53 PM 28.0 °F - 18.0 °F 66% 29.82 in 10.0 mi Calm Calm - N/A   Mostly Cloudy
11:53 PM 37.9 °F 32.1 °F 17.1 °F 43% 29.76 in 10.0 mi West 8.1 mph - N/A   Clear